^^
Grace C. Lehan Memorial Weather Station Historical Data
Daily Summary for October 11, 2021 Units:  Metric    English   Both
Daily Weekly Monthly Yearly
  High: Low: Average:
Temperature: 21.3 °C 14.6 °C 17.4 °C
Dew Point: 17.1 °C 13.5 °C 15.1 °C
Humidity: 93% 72.2% 86%
Wind Speed: 7.2km/h 0km/h 0.6km/h
Wind Gust: 22.5km/h - -
Wind- - East
Pressure: 1019.9 hPa 1017.5 hPa -
Precipitation: 0 mm    
 
 
Tabular Data for October 11, 2021
Time Temperature Dew Point Pressure Wind Wind Speed Wind Gust Humidity Rainfall Rate (Hourly) solar
00:09 15.6 °C 14.2 °C 1019.9 hPa NNW 0.8 km/h 9.7 km/h 91.6% 0 mm 0 W/m2
00:14 15.6 °C 14.2 °C 1019.9 hPa NE 0.2 km/h 9.7 km/h 92% 0 mm 0 W/m2
00:19 15.5 °C 14.2 °C 1019.9 hPa NNW 0.5 km/h 9.7 km/h 92% 0 mm 0 W/m2
00:24 15.5 °C 14.2 °C 1019.9 hPa NNW 1.3 km/h 16.1 km/h 92% 0 mm 0 W/m2
00:29 15.4 °C 14.2 °C 1019.5 hPa North 0.2 km/h 16.1 km/h 92% 0 mm 0 W/m2
00:34 15.4 °C 14.3 °C 1019.5 hPa Calm   16.1 km/h 92.6% 0 mm 0 W/m2
00:39 15.4 °C 14.3 °C 1019.5 hPa ENE 0.2 km/h 6.4 km/h 93% 0 mm 0 W/m2
00:44 15.4 °C 14.3 °C 1019.5 hPa East 1.1 km/h 6.4 km/h 93% 0 mm 0 W/m2
00:49 15.4 °C 14.3 °C 1019.5 hPa Calm   6.4 km/h 93% 0 mm 0 W/m2
00:54 15.4 °C 14.3 °C 1019.5 hPa Calm   6.4 km/h 93% 0 mm 0 W/m2
00:59 15.4 °C 14.3 °C 1019.2 hPa Calm   6.4 km/h 93% 0 mm 0 W/m2
01:04 15.5 °C 14.3 °C 1019.2 hPa Calm   6.4 km/h 93% 0 mm 0 W/m2
01:09 15.5 °C 14.4 °C 1019.2 hPa North 0.2 km/h 4.8 km/h 93% 0 mm 0 W/m2
01:14 15.5 °C 14.4 °C 1019.2 hPa North 1 km/h 8 km/h 93% 0 mm 0 W/m2
01:19 15.5 °C 14.4 °C 1019.2 hPa North 0.2 km/h 8 km/h 93% 0 mm 0 W/m2
01:24 15.5 °C 14.4 °C 1019.2 hPa NW 0.5 km/h 11.3 km/h 93% 0 mm 0 W/m2
01:28 15.6 °C 14.4 °C 1019.2 hPa NW 1.6 km/h 11.3 km/h 93% 0 mm 0 W/m2
01:34 15.6 °C 14.4 °C 1019.2 hPa NE 0.2 km/h 11.3 km/h 93% 0 mm 0 W/m2
01:39 15.6 °C 14.4 °C 1018.8 hPa NNE 1.4 km/h 8 km/h 93% 0 mm 0 W/m2
01:44 15.6 °C 14.4 °C 1018.8 hPa ENE 0.5 km/h 8 km/h 93% 0 mm 0 W/m2
01:49 15.6 °C 14.4 °C 1018.8 hPa North 0.3 km/h 8 km/h 93% 0 mm 0 W/m2
01:54 15.6 °C 14.4 °C 1018.5 hPa NNE 0.2 km/h 8 km/h 93% 0 mm 0 W/m2
01:59 15.6 °C 14.4 °C 1018.5 hPa North 0.3 km/h 9.7 km/h 93% 0 mm 0 W/m2
02:04 15.6 °C 14.4 °C 1018.5 hPa South 0.2 km/h 9.7 km/h 93% 0 mm 0 W/m2
02:09 15.6 °C 14.4 °C 1018.5 hPa SE 0.3 km/h 6.4 km/h 92.7% 0 mm 0 W/m2
02:14 15.6 °C 14.4 °C 1018.5 hPa NNE 1.4 km/h 9.7 km/h 93% 0 mm 0 W/m2
02:19 15.6 °C 14.3 °C 1018.5 hPa ENE 0.2 km/h 9.7 km/h 92.1% 0 mm 0 W/m2
02:24 15.6 °C 14.3 °C 1018.5 hPa ENE 1 km/h 9.7 km/h 92% 0 mm 0 W/m2
02:29 15.6 °C 14.3 °C 1018.5 hPa ENE 0.5 km/h 11.3 km/h 92% 0 mm 0 W/m2
02:34 15.6 °C 14.3 °C 1018.5 hPa ENE 0.6 km/h 11.3 km/h 92% 0 mm 0 W/m2
02:39 15.6 °C 14.3 °C 1018.5 hPa NNE 0.6 km/h 6.4 km/h 92% 0 mm 0 W/m2
02:44 15.6 °C 14.3 °C 1018.2 hPa ENE 1.6 km/h 6.4 km/h 92% 0 mm 0 W/m2
02:49 15.6 °C 14.3 °C 1018.2 hPa NNE 0.6 km/h 6.4 km/h 92% 0 mm 0 W/m2
02:54 15.6 °C 14.3 °C 1018.5 hPa NE 0.2 km/h 6.4 km/h 92% 0 mm 0 W/m2
02:59 15.6 °C 14.3 °C 1018.2 hPa North 0.6 km/h 6.4 km/h 92.2% 0 mm 0 W/m2
03:04 15.6 °C 14.3 °C 1018.5 hPa NNW 0.8 km/h 9.7 km/h 92.2% 0 mm 0 W/m2
03:09 15.6 °C 14.3 °C 1018.5 hPa East 0.5 km/h 9.7 km/h 92% 0 mm 0 W/m2
03:14 15.6 °C 14.3 °C 1018.5 hPa NNE 1 km/h 9.7 km/h 92% 0 mm 0 W/m2
03:19 15.6 °C 14.3 °C 1018.5 hPa ENE 1 km/h 9.7 km/h 92% 0 mm 0 W/m2
03:24 15.6 °C 14.3 °C 1018.5 hPa NNE 1.1 km/h 9.7 km/h 92% 0 mm 0 W/m2
03:29 15.6 °C 14.3 °C 1018.5 hPa NNE 0.2 km/h 9.7 km/h 92% 0 mm 0 W/m2
03:34 15.6 °C 14.3 °C 1018.5 hPa NE 0.8 km/h 9.7 km/h 92% 0 mm 0 W/m2
03:39 15.6 °C 14.3 °C 1018.2 hPa NNW 0.8 km/h 11.3 km/h 92% 0 mm 0 W/m2
03:44 15.6 °C 14.3 °C 1018.2 hPa NNE 0.5 km/h 11.3 km/h 92% 0 mm 0 W/m2
03:49 15.6 °C 14.3 °C 1018.2 hPa NE 1.6 km/h 11.3 km/h 92% 0 mm 0 W/m2
03:54 15.6 °C 14.3 °C 1018.2 hPa NNE 0.3 km/h 11.3 km/h 92% 0 mm 0 W/m2
03:59 15.6 °C 14.3 °C 1018.2 hPa Calm   11.3 km/h 92% 0 mm 0 W/m2
04:00 15.6 °C 14.3 °C 1018.2 hPa Calm   11.3 km/h 92% 0 mm 0 W/m2
04:09 15.6 °C 14.3 °C 1018.2 hPa Calm     92% 0 mm 0 W/m2
04:14 15.6 °C 14.3 °C 1018.2 hPa NNW 1 km/h 9.7 km/h 92% 0 mm 0 W/m2
04:19 15.6 °C 14.3 °C 1018.2 hPa NNE 1 km/h 9.7 km/h 92% 0 mm 0 W/m2
04:24 15.6 °C 14.3 °C 1018.2 hPa North 1.4 km/h 9.7 km/h 92% 0 mm 0 W/m2
04:29 15.6 °C 14.3 °C 1018.2 hPa East 0.2 km/h 9.7 km/h 92% 0 mm 0 W/m2
04:34 15.6 °C 14.3 °C 1018.2 hPa NE 0.2 km/h 9.7 km/h 92% 0 mm 0 W/m2
04:39 15.6 °C 14.3 °C 1018.2 hPa NNE 1.9 km/h 11.3 km/h 92% 0 mm 0 W/m2
04:44 15.6 °C 14.3 °C 1018.2 hPa North 1.3 km/h 11.3 km/h 92% 0 mm 0 W/m2
04:49 15.6 °C 14.3 °C 1018.5 hPa ENE 1.9 km/h 16.1 km/h 92% 0 mm 0 W/m2
04:54 15.6 °C 14.3 °C 1018.5 hPa NE 0.8 km/h 16.1 km/h 92% 0 mm 0 W/m2
04:59 15.6 °C 14.3 °C 1018.5 hPa NE 0.8 km/h 16.1 km/h 92% 0 mm 0 W/m2
05:04 15.6 °C 14.3 °C 1018.5 hPa North 0.6 km/h 16.1 km/h 92% 0 mm 0 W/m2
05:09 15.6 °C 14.3 °C 1018.5 hPa North 0.6 km/h 8 km/h 92% 0 mm 0 W/m2
05:14 15.6 °C 14.3 °C 1018.5 hPa North 0.6 km/h 8 km/h 92% 0 mm 0 W/m2
05:19 15.6 °C 14.3 °C 1018.5 hPa ENE 2.3 km/h 11.3 km/h 92% 0 mm 0 W/m2
05:24 15.5 °C 14.2 °C 1018.5 hPa NNE 1.1 km/h 11.3 km/h 92% 0 mm 0 W/m2
05:29 15.5 °C 14.2 °C 1018.5 hPa North 2.3 km/h 11.3 km/h 92% 0 mm 0 W/m2
05:34 15.5 °C 14.2 °C 1018.5 hPa NE 1.9 km/h 11.3 km/h 92% 0 mm 0 W/m2
05:39 15.5 °C 14.2 °C 1018.5 hPa ENE 1.9 km/h 11.3 km/h 92% 0 mm 0 W/m2
05:44 15.4 °C 14.2 °C 1018.5 hPa NE 1.3 km/h 11.3 km/h 92% 0 mm 0 W/m2
05:49 15.4 °C 14.2 °C 1018.5 hPa ENE 0.8 km/h 11.3 km/h 92% 0 mm 0 W/m2
05:54 15.4 °C 14.2 °C 1018.5 hPa East 1.4 km/h 11.3 km/h 92% 0 mm 0 W/m2
05:59 15.4 °C 14.2 °C 1018.5 hPa ENE 4.2 km/h 11.3 km/h 92% 0 mm 0 W/m2
06:04 15.4 °C 14.2 °C 1018.5 hPa ENE 1.6 km/h 11.3 km/h 92% 0 mm 0 W/m2
06:09 15.4 °C 14.2 °C 1018.5 hPa ENE 0.3 km/h 9.7 km/h 92% 0 mm 0 W/m2
06:13 15.4 °C 14.2 °C 1018.5 hPa North 0.3 km/h 9.7 km/h 92% 0 mm 0 W/m2
06:19 15.4 °C 14.2 °C 1018.5 hPa Calm   9.7 km/h 92% 0 mm 0 W/m2
06:24 15.5 °C 14.2 °C 1018.5 hPa NNE 0.6 km/h 9.7 km/h 92% 0 mm 0 W/m2
06:29 15.5 °C 14.2 °C 1018.5 hPa NNE 0.8 km/h 11.3 km/h 92% 0 mm 0 W/m2
06:34 15.5 °C 14.2 °C 1018.8 hPa Calm   11.3 km/h 92% 0 mm 0 W/m2
06:39 15.5 °C 14.2 °C 1018.8 hPa East 0.3 km/h 4.8 km/h 92% 0 mm 0 W/m2
06:44 15.5 °C 14.2 °C 1018.8 hPa NNE 0.6 km/h 6.4 km/h 92% 0 mm 0 W/m2
06:49 15.6 °C 14.3 °C 1018.8 hPa NNE 0.5 km/h 6.4 km/h 92% 0 mm 0 W/m2
06:54 15.6 °C 14.2 °C 1018.8 hPa NNE 0.3 km/h 6.4 km/h 91.8% 0 mm 0 W/m2
06:59 15.6 °C 14.1 °C 1018.8 hPa NE 1.3 km/h 9.7 km/h 91% 0 mm 0 W/m2
07:04 15.6 °C 14.1 °C 1019.2 hPa North 1.1 km/h 9.7 km/h 91% 0 mm 0 W/m2
07:09 15.6 °C 14.1 °C 1019.2 hPa ENE 0.2 km/h 8 km/h 91.2% 0 mm 0 W/m2
07:14 15.6 °C 14.2 °C 1019.2 hPa ENE 0.6 km/h 9.7 km/h 91.7% 0 mm 0 W/m2
07:19 15.6 °C 14.3 °C 1019.2 hPa NE 0.3 km/h 9.7 km/h 92% 0 mm 0 W/m2
07:24 15.6 °C 14.3 °C 1019.5 hPa East 0.6 km/h 9.7 km/h 92% 0 mm 0 W/m2
07:29 15.6 °C 14.2 °C 1019.5 hPa NW 1.1 km/h 11.3 km/h 91% 0 mm 5 W/m2
07:34 15.6 °C 14.2 °C 1019.5 hPa NNE 0.3 km/h 11.3 km/h 91% 0 mm 7 W/m2
07:39 15.6 °C 14.2 °C 1019.5 hPa NNW 1 km/h 4.8 km/h 91% 0 mm 9 W/m2
07:44 15.6 °C 14.2 °C 1019.5 hPa North 0.3 km/h 6.4 km/h 91% 0 mm 11 W/m2
07:49 15.6 °C 14.2 °C 1019.5 hPa Calm   6.4 km/h 91% 0 mm 12 W/m2
07:54 15.7 °C 14.2 °C 1019.5 hPa North 1.9 km/h 9.7 km/h 91% 0 mm 14 W/m2
07:59 15.7 °C 14.2 °C 1019.9 hPa Calm   9.7 km/h 91% 0 mm 19 W/m2
08:09 15.7 °C 14.3 °C 1019.5 hPa NE 1 km/h 11.3 km/h 91% 0 mm 42 W/m2
08:14 15.7 °C 14.3 °C 1019.5 hPa ENE 2.1 km/h 14.5 km/h 91% 0 mm 51 W/m2
08:19 15.8 °C 14.3 °C 1019.5 hPa NE 0.3 km/h 14.5 km/h 91% 0 mm 56 W/m2
08:24 15.8 °C 14.3 °C 1019.9 hPa NE 1 km/h 14.5 km/h 91% 0 mm 42 W/m2
08:29 15.8 °C 14.4 °C 1019.5 hPa ENE 2.1 km/h 14.5 km/h 91% 0 mm 37 W/m2
08:34 15.8 °C 14.4 °C 1019.5 hPa NE 0.6 km/h 14.5 km/h 91% 0 mm 56 W/m2
08:39 15.9 °C 14.4 °C 1019.5 hPa NE 0.6 km/h 6.4 km/h 91% 0 mm 54 W/m2
08:44 15.9 °C 14.5 °C 1019.5 hPa Calm   6.4 km/h 91% 0 mm 77 W/m2
08:49 16.1 °C 14.6 °C 1019.5 hPa NE 1.6 km/h 11.3 km/h 91.2% 0 mm 93 W/m2
08:54 16.1 °C 14.7 °C 1019.5 hPa ENE 0.6 km/h 11.3 km/h 91% 0 mm 114 W/m2
08:59 16.2 °C 14.7 °C 1019.5 hPa ENE 0.6 km/h 11.3 km/h 91% 0 mm 125 W/m2
09:04 16.3 °C 14.8 °C 1019.5 hPa ENE 0.5 km/h 11.3 km/h 91% 0 mm 116 W/m2
09:09 16.4 °C 14.9 °C 1019.9 hPa NNE 0.8 km/h 6.4 km/h 90.9% 0 mm 116 W/m2
09:14 16.6 °C 14.9 °C 1019.9 hPa NE 0.5 km/h 6.4 km/h 90% 0 mm 109 W/m2
09:19 16.7 °C 15.1 °C 1019.5 hPa NNE 0.2 km/h 6.4 km/h 90.2% 0 mm 120 W/m2
09:24 16.8 °C 15.1 °C 1019.5 hPa NE 0.2 km/h 6.4 km/h 89.8% 0 mm 109 W/m2
09:29 16.9 °C 15.2 °C 1019.5 hPa NW 0.8 km/h 8 km/h 90% 0 mm 105 W/m2
09:34 17 °C 15.2 °C 1019.5 hPa Calm   8 km/h 89.5% 0 mm 105 W/m2
09:39 17.1 °C 15.2 °C 1019.5 hPa NE 0.5 km/h 8 km/h 89% 0 mm 105 W/m2
09:44 17.1 °C 15.3 °C 1019.5 hPa NE 0.8 km/h 8 km/h 89% 0 mm 156 W/m2
09:49 17.2 °C 15.4 °C 1019.5 hPa NE 1.8 km/h 8 km/h 89% 0 mm 162 W/m2
09:54 17.3 °C 15.4 °C 1019.5 hPa ENE 1.9 km/h 11.3 km/h 88.5% 0 mm 209 W/m2
09:59 17.4 °C 15.5 °C 1019.5 hPa East 0.6 km/h 11.3 km/h 88.3% 0 mm 250 W/m2
10:04 17.6 °C 15.6 °C 1019.5 hPa East 0.2 km/h 11.3 km/h 88% 0 mm 195 W/m2
10:09 17.8 °C 15.8 °C 1019.5 hPa NE 1.1 km/h 9.7 km/h 88.2% 0 mm 223 W/m2
10:14 17.9 °C 15.8 °C 1019.2 hPa NE 1.8 km/h 9.7 km/h 87.1% 0 mm 237 W/m2
10:19 18.1 °C 15.9 °C 1019.2 hPa Calm   9.7 km/h 87% 0 mm 199 W/m2
10:24 18.3 °C 16.1 °C 1019.5 hPa ESE 0.2 km/h 9.7 km/h 87% 0 mm 200 W/m2
10:29 18.4 °C 16.2 °C 1019.5 hPa East 0.2 km/h 9.7 km/h 86.3% 0 mm 209 W/m2
10:34 18.7 °C 16.3 °C 1019.5 hPa NNW 1.4 km/h 11.3 km/h 86% 0 mm 211 W/m2
10:39 18.8 °C 16.3 °C 1019.5 hPa NW 0.6 km/h 11.3 km/h 85.3% 0 mm 227 W/m2
10:44 18.9 °C 16.3 °C 1019.5 hPa NE 0.8 km/h 11.3 km/h 84.8% 0 mm 197 W/m2
10:49 18.9 °C 16.1 °C 1019.5 hPa ENE 0.6 km/h 11.3 km/h 83.3% 0 mm 193 W/m2
10:54 19 °C 16.2 °C 1019.5 hPa Calm   11.3 km/h 84% 0 mm 195 W/m2
10:59 19 °C 16.3 °C 1019.5 hPa NNE 0.3 km/h 11.3 km/h 84% 0 mm 158 W/m2
11:04 19.1 °C 16.3 °C 1019.5 hPa NNE 0.2 km/h 11.3 km/h 83.8% 0 mm 146 W/m2
11:09 19.1 °C 16.2 °C 1019.5 hPa North 1.1 km/h 9.7 km/h 83.3% 0 mm 149 W/m2
11:14 19.1 °C 16.1 °C 1019.2 hPa Calm   9.7 km/h 83% 0 mm 146 W/m2
11:19 18.9 °C 16 °C 1019.2 hPa NNW 0.5 km/h 9.7 km/h 83% 0 mm 128 W/m2
11:24 18.8 °C 15.9 °C 1019.2 hPa NE 0.3 km/h 9.7 km/h 83.2% 0 mm 116 W/m2
11:29 18.7 °C 15.9 °C 1019.2 hPa NW 1.9 km/h 9.7 km/h 83.7% 0 mm 121 W/m2
11:34 18.6 °C 16 °C 1019.2 hPa NNE 0.3 km/h 9.7 km/h 84.7% 0 mm 229 W/m2
11:39 18.7 °C 16.2 °C 1019.2 hPa NNE 0.3 km/h 4.8 km/h 85.5% 0 mm 279 W/m2
11:44 18.8 °C 16.3 °C 1019.2 hPa NE 1.1 km/h 9.7 km/h 85% 0 mm 283 W/m2
11:49 19 °C 16.3 °C 1019.2 hPa NNW 1 km/h 9.7 km/h 84.7% 0 mm 267 W/m2
11:54 19.2 °C 16.4 °C 1018.8 hPa NNE 0.3 km/h 9.7 km/h 84.2% 0 mm 234 W/m2
11:59 19.3 °C 16.5 °C 1018.8 hPa North 0.5 km/h 11.3 km/h 83.7% 0 mm 255 W/m2
12:09 19.7 °C 16.7 °C 1018.8 hPa North 0.8 km/h 8 km/h 83.2% 0 mm 251 W/m2
12:14 19.8 °C 16.7 °C 1018.8 hPa NE 0.6 km/h 8 km/h 82.5% 0 mm 276 W/m2
12:19 19.8 °C 16.6 °C 1018.8 hPa ENE 2.1 km/h 8 km/h 81.8% 0 mm 258 W/m2
12:24 19.9 °C 16.7 °C 1018.8 hPa North 1 km/h 8 km/h 82.1% 0 mm 267 W/m2
12:29 20 °C 16.8 °C 1018.8 hPa NNW 1.8 km/h 14.5 km/h 82% 0 mm 248 W/m2
12:34 20.1 °C 16.9 °C 1018.5 hPa NNW 0.2 km/h 14.5 km/h 82% 0 mm 185 W/m2
12:39 20.1 °C 16.8 °C 1018.5 hPa NE 1.3 km/h 12.9 km/h 81.5% 0 mm 251 W/m2
12:44 20.1 °C 16.6 °C 1018.5 hPa ENE 0.8 km/h 12.9 km/h 80.6% 0 mm 265 W/m2
12:49 20.1 °C 16.7 °C 1018.5 hPa North 0.8 km/h 12.9 km/h 81% 0 mm 265 W/m2
12:54 20.2 °C 16.9 °C 1018.5 hPa ENE 0.5 km/h 12.9 km/h 81.2% 0 mm 183 W/m2
12:59 20.2 °C 16.7 °C 1018.5 hPa Calm   12.9 km/h 80.4% 0 mm 211 W/m2
13:04 20.2 °C 16.7 °C 1018.5 hPa North 1.9 km/h 17.7 km/h 80.5% 0 mm 258 W/m2
13:09 20.1 °C 16.7 °C 1018.5 hPa ENE 1.6 km/h 17.7 km/h 80.5% 0 mm 278 W/m2
13:14 20.1 °C 16.6 °C 1018.5 hPa ENE 1.3 km/h 17.7 km/h 80% 0 mm 229 W/m2
13:19 20.1 °C 16.7 °C 1018.5 hPa North 1.9 km/h 17.7 km/h 80.5% 0 mm 234 W/m2
13:24 20.2 °C 16.6 °C 1018.5 hPa NE 0.3 km/h 17.7 km/h 80.1% 0 mm 250 W/m2
13:29 20.2 °C 16.8 °C 1018.5 hPa NE 1.4 km/h 17.7 km/h 80.4% 0 mm 243 W/m2
13:34 20.3 °C 16.6 °C 1018.2 hPa ENE 3.4 km/h 22.5 km/h 79.1% 0 mm 116 W/m2
13:39 20.3 °C 16.6 °C 1018.2 hPa ENE 1.9 km/h 22.5 km/h 79.2% 0 mm 141 W/m2
13:44 20.2 °C 16.4 °C 1018.2 hPa NNW 2.1 km/h 22.5 km/h 79.2% 0 mm 149 W/m2
13:49 20.2 °C 16.6 °C 1018.2 hPa NE 1.8 km/h 22.5 km/h 79.8% 0 mm 171 W/m2
13:54 20.2 °C 16.8 °C 1018.2 hPa NNW 0.3 km/h 22.5 km/h 80.4% 0 mm 213 W/m2
13:59 20.4 °C 16.9 °C 1018.2 hPa NNE 1 km/h 22.5 km/h 80.3% 0 mm 213 W/m2
14:04 20.4 °C 16.6 °C 1018.2 hPa ENE 1.6 km/h 22.5 km/h 78.5% 0 mm 213 W/m2
14:09 20.6 °C 16.7 °C 1018.2 hPa East 0.5 km/h 8 km/h 78.5% 0 mm 193 W/m2
14:14 20.6 °C 16.6 °C 1018.2 hPa NE 3.5 km/h 16.1 km/h 78.1% 0 mm 234 W/m2
14:19 20.7 °C 16.8 °C 1018.2 hPa ENE 1.6 km/h 16.1 km/h 78.6% 0 mm 244 W/m2
14:24 20.7 °C 16.8 °C 1018.2 hPa ENE 0.5 km/h 16.1 km/h 78.5% 0 mm 200 W/m2
14:29 20.8 °C 16.8 °C 1018.2 hPa NE 1.8 km/h 16.1 km/h 78% 0 mm 190 W/m2
14:34 20.9 °C 16.9 °C 1017.8 hPa North 1.1 km/h 16.1 km/h 78% 0 mm 204 W/m2
14:39 21 °C 17 °C 1018.2 hPa NE 0.6 km/h 8 km/h 77.8% 0 mm 209 W/m2
14:44 21.1 °C 17.1 °C 1018.2 hPa NNE 0.2 km/h 8 km/h 78.1% 0 mm 183 W/m2
14:49 21.1 °C 16.7 °C 1017.8 hPa East 2.1 km/h 9.7 km/h 76.3% 0 mm 116 W/m2
14:54 20.9 °C 16.6 °C 1017.8 hPa NE 0.5 km/h 9.7 km/h 76% 0 mm 74 W/m2
14:59 20.9 °C 16.7 °C 1017.8 hPa ENE 2.3 km/h 14.5 km/h 76.7% 0 mm 109 W/m2
15:04 20.9 °C 16.5 °C 1017.8 hPa ENE 0.5 km/h 14.5 km/h 76% 0 mm 318 W/m2
15:09 20.9 °C 16.5 °C 1017.5 hPa ENE 1.9 km/h 11.3 km/h 75.9% 0 mm 76 W/m2
15:14 20.9 °C 16.3 °C 1017.5 hPa East 1.3 km/h 11.3 km/h 74.8% 0 mm 79 W/m2
15:19 21 °C 16.3 °C 1017.5 hPa ENE 3.2 km/h 11.3 km/h 74.5% 0 mm 197 W/m2
15:24 21 °C 16.2 °C 1017.5 hPa ENE 1.9 km/h 11.3 km/h 74.1% 0 mm 197 W/m2
15:29 21.1 °C 16.6 °C 1017.5 hPa ENE 0.6 km/h 11.3 km/h 75.5% 0 mm 207 W/m2
15:34 21.2 °C 16.4 °C 1017.5 hPa ENE 1.9 km/h 16.1 km/h 74.3% 0 mm 207 W/m2
15:39 21.2 °C 16.2 °C 1017.5 hPa NNE 1 km/h 16.1 km/h 73.2% 0 mm 151 W/m2
15:44 21.3 °C 16.2 °C 1017.5 hPa NE 1.8 km/h 16.1 km/h 72.6% 0 mm 42 W/m2
15:49 21.2 °C 16.1 °C 1017.5 hPa NE 1.3 km/h 16.1 km/h 72.3% 0 mm 56 W/m2
15:54 21.2 °C 16.2 °C 1017.5 hPa ENE 2.9 km/h 16.1 km/h 73% 0 mm 86 W/m2
15:59 21.2 °C 16.2 °C 1017.5 hPa ENE 2.7 km/h 16.1 km/h 73% 0 mm 97 W/m2
16:00 21.3 °C 16.3 °C 1017.5 hPa East 7.2 km/h 16.1 km/h 73% 0 mm 104 W/m2
16:09 21.3 °C 16.1 °C 1017.8 hPa NE 3.1 km/h 11.3 km/h 72.2% 0 mm 30 W/m2
16:14 21.2 °C 16 °C 1017.5 hPa NE 1.8 km/h 11.3 km/h 72.3% 0 mm 35 W/m2
16:19 21.1 °C 16.1 °C 1017.8 hPa ENE 1.3 km/h 11.3 km/h 73% 0 mm 95 W/m2
16:24 21.1 °C 16.1 °C 1017.8 hPa NE 3.1 km/h 11.3 km/h 72.8% 0 mm 98 W/m2
16:29 21.2 °C 16.2 °C 1017.8 hPa NE 3.1 km/h 14.5 km/h 72.9% 0 mm 83 W/m2
16:34 21.3 °C 16.1 °C 1017.8 hPa ENE 1.9 km/h 14.5 km/h 72.4% 0 mm 35 W/m2
16:39 21.3 °C 16.1 °C 1017.8 hPa ENE 0.2 km/h 8 km/h 72.6% 0 mm 26 W/m2
16:44 21.2 °C 16.2 °C 1017.8 hPa East 0.3 km/h 8 km/h 73% 0 mm 33 W/m2
16:49 21.1 °C 16.1 °C 1017.8 hPa NNE 1.1 km/h 11.3 km/h 73% 0 mm 51 W/m2
16:54 21.1 °C 16.1 °C 1017.8 hPa NNW 1.1 km/h 11.3 km/h 73.2% 0 mm 72 W/m2
16:59 21.1 °C 16.2 °C 1017.8 hPa NNE 1.4 km/h 11.3 km/h 73.9% 0 mm 76 W/m2
17:04 21.1 °C 16 °C 1017.8 hPa East 1.1 km/h 11.3 km/h 72.7% 0 mm 58 W/m2
17:09 21.1 °C 16.1 °C 1017.8 hPa ENE 1.3 km/h 9.7 km/h 73% 0 mm 42 W/m2
17:14 21.1 °C 16 °C 1017.8 hPa ENE 1.9 km/h 11.3 km/h 72.8% 0 mm 42 W/m2
17:19 21 °C 15.9 °C 1017.8 hPa NE 1 km/h 11.3 km/h 72.5% 0 mm 33 W/m2
17:24 20.9 °C 15.9 °C 1017.8 hPa ENE 0.3 km/h 11.3 km/h 73% 0 mm 21 W/m2
17:29 20.8 °C 15.8 °C 1017.8 hPa ENE 0.5 km/h 11.3 km/h 73% 0 mm 14 W/m2
17:34 20.7 °C 15.8 °C 1017.8 hPa Calm   11.3 km/h 73.8% 0 mm 12 W/m2
17:39 20.6 °C 15.9 °C 1017.8 hPa Calm     74.4% 0 mm 12 W/m2
17:44 20.4 °C 15.9 °C 1017.8 hPa Calm     75% 0 mm 11 W/m2
17:49 20.3 °C 15.7 °C 1017.8 hPa ENE 0.3 km/h 4.8 km/h 75% 0 mm 7 W/m2
17:54 20.2 °C 15.8 °C 1017.8 hPa ENE 0.6 km/h 6.4 km/h 75.7% 0 mm 5 W/m2
17:59 20.1 °C 15.7 °C 1018.2 hPa Calm   6.4 km/h 76% 0 mm 0 W/m2
18:04 20 °C 15.7 °C 1018.2 hPa Calm   6.4 km/h 76.6% 0 mm 0 W/m2
18:09 19.9 °C 15.7 °C 1018.2 hPa Calm     77% 0 mm 0 W/m2
18:14 19.8 °C 15.7 °C 1018.2 hPa Calm     77.4% 0 mm 0 W/m2
18:19 19.6 °C 15.7 °C 1018.2 hPa Calm     78% 0 mm 0 W/m2
18:24 19.5 °C 15.6 °C 1017.8 hPa Calm     78% 0 mm 0 W/m2
18:29 19.4 °C 15.6 °C 1018.2 hPa Calm     78.9% 0 mm 0 W/m2
18:34 19.3 °C 15.6 °C 1018.2 hPa Calm     79% 0 mm 0 W/m2
18:39 19.2 °C 15.4 °C 1018.2 hPa Calm     79.1% 0 mm 0 W/m2
18:44 19.1 °C 15.5 °C 1018.2 hPa Calm     80% 0 mm 0 W/m2
18:49 18.9 °C 15.4 °C 1018.2 hPa Calm     80.3% 0 mm 0 W/m2
18:54 18.8 °C 15.4 °C 1018.2 hPa Calm     81% 0 mm 0 W/m2
18:59 18.7 °C 15.4 °C 1018.5 hPa Calm     81.5% 0 mm 0 W/m2
19:04 18.5 °C 15.4 °C 1018.5 hPa Calm     82% 0 mm 0 W/m2
19:09 18.3 °C 15.4 °C 1018.5 hPa Calm     82.8% 0 mm 0 W/m2
19:14 18.2 °C 15.2 °C 1018.5 hPa Calm     83% 0 mm 0 W/m2
19:19 18.1 °C 15.3 °C 1018.5 hPa Calm     83.8% 0 mm 0 W/m2
19:24 17.9 °C 15.2 °C 1018.5 hPa Calm     84% 0 mm 0 W/m2
19:29 17.8 °C 15.1 °C 1018.5 hPa Calm     84% 0 mm 0 W/m2
19:34 17.7 °C 15.1 °C 1018.5 hPa Calm     84.9% 0 mm 0 W/m2
19:39 17.6 °C 15 °C 1018.5 hPa Calm     85% 0 mm 0 W/m2
19:44 17.4 °C 15.1 °C 1018.5 hPa Calm     86% 0 mm 0 W/m2
19:49 17.3 °C 15 °C 1018.5 hPa Calm     86% 0 mm 0 W/m2
19:54 17.2 °C 14.9 °C 1018.5 hPa Calm     86% 0 mm 0 W/m2
19:59 17.2 °C 14.8 °C 1018.5 hPa Calm     86% 0 mm 0 W/m2
20:00 17.1 °C 14.8 °C 1018.5 hPa Calm     86% 0 mm 0 W/m2
20:09 16.9 °C 14.7 °C 1018.8 hPa Calm     86.7% 0 mm 0 W/m2
20:14 16.9 °C 14.7 °C 1018.5 hPa Calm     87% 0 mm 0 W/m2
20:19 16.8 °C 14.7 °C 1018.5 hPa Calm     87.2% 0 mm 0 W/m2
20:24 16.8 °C 14.8 °C 1018.5 hPa Calm     88% 0 mm 0 W/m2
20:29 16.7 °C 14.7 °C 1018.5 hPa Calm     88% 0 mm 0 W/m2
20:34 16.7 °C 14.7 °C 1018.5 hPa Calm     88% 0 mm 0 W/m2
20:39 16.6 °C 14.6 °C 1018.5 hPa Calm     88% 0 mm 0 W/m2
20:44 16.6 °C 14.6 °C 1018.5 hPa Calm     88% 0 mm 0 W/m2
20:49 16.4 °C 14.4 °C 1018.5 hPa Calm     88% 0 mm 0 W/m2
20:54 16.4 °C 14.4 °C 1018.5 hPa Calm     88% 0 mm 0 W/m2
20:59 16.3 °C 14.3 °C 1018.5 hPa Calm     88.2% 0 mm 0 W/m2
21:04 16.2 °C 14.4 °C 1018.5 hPa Calm     89% 0 mm 0 W/m2
21:09 16.2 °C 14.3 °C 1018.5 hPa Calm     89% 0 mm 0 W/m2
21:14 16.1 °C 14.3 °C 1018.8 hPa Calm     89% 0 mm 0 W/m2
21:19 16 °C 14.2 °C 1018.8 hPa Calm     89% 0 mm 0 W/m2
21:24 15.9 °C 14.3 °C 1018.8 hPa Calm     89.7% 0 mm 0 W/m2
21:29 15.9 °C 14.3 °C 1018.8 hPa Calm     90% 0 mm 0 W/m2
21:34 15.8 °C 14.2 °C 1018.8 hPa Calm     90% 0 mm 0 W/m2
21:39 15.8 °C 14.2 °C 1018.8 hPa Calm     90.4% 0 mm 0 W/m2
21:44 15.7 °C 14.1 °C 1018.8 hPa Calm     90% 0 mm 0 W/m2
21:49 15.7 °C 14 °C 1018.8 hPa Calm     90% 0 mm 0 W/m2
21:54 15.6 °C 14 °C 1018.8 hPa Calm     90.3% 0 mm 0 W/m2
21:59 15.6 °C 14.1 °C 1018.8 hPa Calm     91% 0 mm 0 W/m2
22:04 15.5 °C 14 °C 1018.8 hPa Calm     91% 0 mm 0 W/m2
22:09 15.4 °C 14 °C 1018.8 hPa Calm     91% 0 mm 0 W/m2
22:14 15.4 °C 14 °C 1018.5 hPa Calm     91% 0 mm 0 W/m2
22:19 15.4 °C 14 °C 1018.5 hPa Calm     91.4% 0 mm 0 W/m2
22:24 15.4 °C 14.1 °C 1018.5 hPa Calm     92% 0 mm 0 W/m2
22:29 15.4 °C 14.1 °C 1018.5 hPa Calm     92% 0 mm 0 W/m2
22:34 15.3 °C 14.1 °C 1018.5 hPa Calm     92% 0 mm 0 W/m2
22:39 15.3 °C 14.1 °C 1018.5 hPa Calm     92% 0 mm 0 W/m2
22:44 15.3 °C 14 °C 1018.5 hPa Calm     92% 0 mm 0 W/m2
22:49 15.2 °C 13.9 °C 1018.5 hPa Calm     92% 0 mm 0 W/m2
22:54 15.2 °C 13.9 °C 1018.5 hPa Calm     92% 0 mm 0 W/m2
22:59 15.2 °C 13.9 °C 1018.8 hPa Calm     92% 0 mm 0 W/m2
23:04 15.1 °C 13.8 °C 1018.8 hPa Calm     92% 0 mm 0 W/m2
23:09 15.1 °C 13.8 °C 1018.8 hPa Calm     92.2% 0 mm 0 W/m2
23:14 15 °C 13.9 °C 1018.8 hPa Calm     93% 0 mm 0 W/m2
23:19 14.9 °C 13.7 °C 1018.8 hPa Calm     92.3% 0 mm 0 W/m2
23:24 14.9 °C 13.8 °C 1018.8 hPa Calm     93% 0 mm 0 W/m2
23:29 14.9 °C 13.8 °C 1018.8 hPa Calm     93% 0 mm 0 W/m2
23:34 14.8 °C 13.7 °C 1018.8 hPa Calm     93% 0 mm 0 W/m2
23:39 14.8 °C 13.7 °C 1018.8 hPa Calm     93% 0 mm 0 W/m2
23:44 14.7 °C 13.6 °C 1018.8 hPa Calm     93% 0 mm 0 W/m2
23:49 14.7 °C 13.6 °C 1018.8 hPa Calm     93% 0 mm 0 W/m2
23:54 14.7 °C 13.6 °C 1018.8 hPa Calm     93% 0 mm 0 W/m2
23:59 14.6 °C 13.5 °C 1018.5 hPa Calm     93% 0 mm 0 W/m2
Hartford County Weather
Compliments of Weather Underground - 4 mb